Regional Weather Roundup
Issued by NWS Mobile, AL

Home | Current Version | Previous Version | Text Only | Print | Product List | Glossary On
Versions: 1 2 3 4 5 6 7 8 9 10 11 12 13 14 15 16 17 18 19 20 21 22 23 24 25 26 27 28 29 30 31 32 33 34 35 36 37 38 39 40 41 42 43 44 45 46 47 48 49 50
000
ASUS44 KMOB 232210
RWRMOB
REGIONAL WEATHER ROUNDUP
NATIONAL WEATHER SERVICE MOBILE AL
500 PM CDT WED JUL 23 2014

NOTE: "FAIR" INDICATES FEW OR NO CLOUDS BELOW 12,000 FEET WITH NO
      SIGNIFICANT WEATHER AND/OR OBSTRUCTIONS TO VISIBILITY.

  * THESE STATIONS ARE PART OF THE UNIVERSITY OF SOUTH ALABAMA
    MESONET AND ARE NOT UNDER NWS OR FAA QUALITY CONTROL.

ALZ061>064-232300-
COASTAL ALABAMA

CITY           SKY/WX    TMP DP  RH WIND       PRES   REMARKS
MOBILE REG APT PTSUNNY   82  74  76 SE8       30.00F
BROOKLEY FIELD MOSUNNY   83  74  74 S6        30.01F
USA CAMPUS*      N/A     84  72  65 CALM      29.97F
DOG RIVER*       N/A     82  73  74 S3        30.01F


CITY           SKY/WX    TMP DP  RH WIND       PRES   REMARKS
MOUNT VERNON*    N/A     84  75  74 CALM      29.98F
SARALAND*      NOT AVBL
BAY MINETTE*   NOT AVBL
LOXLEY*          N/A     82  70  65 SE5       30.00F
ROBERTSDALE*     N/A     81  70  69 S3        29.99F
FAIRHOPE*        N/A     84  70  61 S6        29.98F
ELBERTA*         N/A     84  73  70 SE3       29.98F
FOLEY*         NOT AVBL
GRAND BAY*       N/A     84  72  65 CALM      29.98F
DAUPHIN ISLND* NOT AVBL
BON SCOUR NWR* NOT AVBL
GULF SHORES    SUNNY     84  71  64 S6        29.99F

$$

ALZ051>060-232300-
INTERIOR SOUTHWEST AND SOUTH CENTRAL ALABAMA

CITY           SKY/WX    TMP DP  RH WIND       PRES   REMARKS
GREENVILLE     PTSUNNY   87  67  51 SW3       29.98F
EVERGREEN      PTSUNNY   87  71  58 SW6       29.99F
CASTLEBERRY*   NOT AVBL
ATMORE*          N/A     82  75  78 S3        30.02F
DIXIE*         NOT AVBL
ANDALUSIA/OPP  LGT RAIN  86  73  65 VRB6      29.99F
ANDALUSIA*     NOT AVBL
FLORALA APT    MOSUNNY   88  71  57 SW7       30.01F
FLORALA*         N/A     88  70  55 CALM      29.96F

$$

FLZ001>006-232300-
WESTERN FLORIDA PANHANDLE

CITY           SKY/WX    TMP DP  RH WIND       PRES   REMARKS
PENSACOLA      SUNNY     83  69  62 VRB7      29.99F
NAS PENSACOLA  PTSUNNY   83  71  67 VRB3      29.99F
MILTON         MOSUNNY   84  72  67 SW7       30.00F
WHTNG S FIELD  MOSUNNY   85  72  65 SW5       30.00F


CITY           SKY/WX    TMP DP  RH WIND       PRES   REMARKS
WALNUT HILL*   NOT AVBL
JAY*           NOT AVBL
DUKE FIELD     MOSUNNY   87  78  75 S8        29.99F HX  99
CRESTVIEW      MOSUNNY   87  72  60 SW7       30.00F
VALPARAISO     MOSUNNY   85  74  69 S10       30.00F
DESTIN         MOSUNNY   86  74  67 VRB3      30.00F

$$

MSZ076-079-232300-
INTERIOR SOUTHEAST MISSISSIPPI

CITY           SKY/WX    TMP DP  RH WIND       PRES   REMARKS
LEAKESVILLE*   NOT AVBL
AGRICOLA*      NOT AVBL

$$

MARINE OBSERVATIONS

STATION/POSITION TIME  TEMP    WIND        PRES    WAVE
                       AIR SEA DIR/SP/G            HT/PER
                 (UTC) (F)     (DEG/KT/KT) (MB)    (FT/S)
PASCAGOULA       2200   80     170/  6/  7 1015.7F
PETIT BOIS ISLND 2200   81     180/  5/  6 1016.3S
KATRINA CUT      2100   79     150/  4     1016.9F
CEDAR POINT      2100   83     160/  3     1016.6S
E DAUPHIN ISLAND 2100   79     120/  6/  8 1016.1F
MIDDLE BAY LIGHT 2100   81     150/  6     1015.2F
USCG MOBILE BAY  2200   81 83  150/  5/  8 1014.8F
STATE DOCKS      2200   80 84              1015.8F
MEAHER PARK      2100   80     190/  5     1015.6F
FORT MORGAN      2200   80     180/  5/  6 1015.6S
12 S ORANGE BCH  2200   80 84  130/  8/  8 1015.8F   1/ 4
PENSACOLA BAY    2200   87 86  210/  2/  3 1016.1F
64 S DAUPHIN ISL 2132   81 87  150/  4/  6 1016.4F
67 S FORT MORGAN 2100   75                 1018.3S

$$

SELECTED LOCATIONS ACROSS THE REGION

CITY           SKY/WX    TMP DP  RH WIND       PRES   REMARKS
NEW ORLEANS    PTSUNNY   84  74  71 S7        29.98F
GULFPORT       PTSUNNY   87  70  56 S5        29.98F
PASCAGOULA AP  PTSUNNY   85  72  65 S5        29.99F
PASCAGOULA*      N/A     82  75  78 SW5       29.99F
HATTIESBURG    PTSUNNY   82  73  74 SW5       29.99F
LAUREL         MOSUNNY   84  70  61 S10       30.00F
MERIDIAN       MOSUNNY   87  70  56 SE8       29.96F
JACKSON        PTSUNNY   86  74  67 SW7       29.97F
MONTGOMERY     MOSUNNY   91  70  49 S7        29.97F HX  96
TROY           SUNNY     89  69  51 SW7       30.00F
KINSTON*       NOT AVBL
GENEVA*          N/A     84  73  70 S3        30.01F
ASHFORD*       NOT AVBL
DOTHAN         MOSUNNY   86  72  62 SW7       30.03F
PANAMA CITY    SUNNY     86  71  60 S14       30.00F

$$



USA.gov is the U.S. government's official web portal to all federal, state and local government web resources and services.